闪电 3-27星 (MOLNIYA 3-27)

导读

MOLNIYA 3-27(闪电3-27)是独联体(CIS)继承自苏联航天体系后,于1985年12月24日发射的第三代闪电系列通信卫星,运行在标志性的12小时周期大椭圆闪电轨道,远地点位于北半球上空,能为高纬度地区提供长期通信服务。该卫星承担电视转播、公众通信及军事通信任务,是冷战末期苏联/独联体空间通信网络的重要组网卫星,延续了闪电系列服务高纬度区域通信的核心使命。

基本信息
目录编号:
16393
目录名称:
MOLNIYA 3-27
国际标识:
1985-117A
轨道中心:
EARTH
卫星名称:
闪电 3-27星
卫星全名:
闪电 3-27星 (MOLNIYA 3-27)
卫星状态:
在轨 (已飞行14780 天)
发射日期:
1985-12-24 UTC
国别 :
俄罗斯(独联体) (CIS)
星等 :
--
轨道信息
数据来源 国际轨道数据
星历时间: 2026-06-07T13:42:14+0800
5天前
查看轨道信息
半长轴: 25563.508km
偏心率: 0.7111577
轨道倾角: 61.970°
近地点辐角 251.990°
升交点赤经 226.180°
平近点角 24.150°
近地点: 1005.685km
远地点: 37365.057km
周期: 677.939分钟
每日圈数: 2.124086
详细信息
平衡模式:
三轴稳定
覆盖范围:
全球
运营商:
俄罗斯国家航天集团
运营商所在国:
俄罗斯
制造商(研发单位):
普里克拉德诺伊·梅哈尼基设计局
制造商所在国:
俄罗斯联邦
使用方式:
暂无
卫星简介
闪电(Molniya (Satellite))系列卫星是苏联/俄罗斯于1965年至2004年间发射的军事和通信卫星。这些卫星使用高度偏心的椭圆轨道,称为Molniya轨道(即闪电轨道),在高纬度地区具有较长的停留时间。该卫星状态未知。
2D轨道图
3D轨道图
轨道高度分析图
轨道倾角分析图
轨道综合分析图
查看轨道综合分析图